Zurück zum Katalog

STARLINK-30446

AktivKommunikationVLEO
NORAD 57872·PAYLOAD·🇺🇸 United States

Gestartet Sep 16, 2023 von Cape Canaveral Space Force Station

Loading…

Nächste Überflüge (nächste 24 Stunden)

TLE

AktuellSource: CelesTrak SupGP

Epoche: Sep 15, 2026, 02:47 UTC

1 57872C 23144J   26258.11645833  .00004520  00000+0  16371-3 0  2586
2 57872  43.0025 281.2962 0001370 262.5507  93.9936 15.27576802    16

Verfolge STARLINK-30446 in Echtzeit mit AllMySat

Download on the App Store